Regional Weather Roundup
Issued by NWS

Home | Current Version | Previous Version | Text Only | Print | Product List | Glossary On
Versions: 1 2 3 4 5 6 7 8 9 10 11 12 13 14 15 16 17 18 19 20 21 22 23 24 25 26 27 28 29 30 31 32 33 34 35 36 37 38 39 40 41 42 43 44 45 46 47 48 49 50
000
ASCA42 TJSJ 120710
RWRPR
PUERTO RICO/U.S. VIRGIN ISLANDS HOURLY WEATHER ROUNDUP
NATIONAL WEATHER SERVICE SAN JUAN PR
300 AM AST FRI FEB 12 2016

PRZ001-004-120800-
PUERTO RICO

CITY           SKY/WX    TMP DP  RH WIND       PRES   REMARKS
SAN JUAN LMM   LGT RAIN  75  72  88 N3        30.07F
PONCE          CLEAR     72  66  83 CALM      30.06S
AGUADILLA      CLOUDY    73  66  78 E6        30.08
CEIBA          PTCLDY    75  72  88 NE12      30.09F
$$

PRZ006-007-120800-
U.S. VIRGIN ISLANDS

CITY           SKY/WX    TMP DP  RH WIND       PRES   REMARKS
CHARLOTTE AMA  CLEAR     75  70  83 E7        30.06F
CHRISTIANSTED  PTCLDY    73  70  88 NE6       30.06F
$$

HOURLY WEATHER ROUNDUP FOR THE NEWS MEDIA

CITY           SKY/WX    TMP DP  RH WIND       PRES   REMARKS
ORLANDO        CLEAR     50  44  80 SW6       30.27F
NEW YORK       PTCLDY    19  -3  38 NW21G28   30.24S WCI   3
NEWARK         PTCLDY    17  -2  43 NW13G20   30.24R WCI   4
CHICAGO        CLOUDY    19   7  59 W7        30.20F WCI  10
HARTFORD       CLEAR     11  -6  46 NW13G22   30.10R WCI  -4
BOSTON         CLEAR      9  -7  48 W21G28    30.10R WCI -11
DALLAS         CLEAR     55  33  43 N3        30.12S
PHILADELPHIA   PTCLDY    20  -2  38 W10       30.29S WCI   9
LOS ANGELES    PTCLDY    63  43  48 CALM      30.11S
WASHINGTON DC  FAIR      17   4  56 W5        30.32F WCI  10


USA.gov is the U.S. government's official web portal to all federal, state and local government web resources and services.